Regional Weather Roundup
Issued by NWS

Home | Current Version | Previous Version | Text Only | Print | Product List | Glossary Off
Versions: 1 2 3 4 5 6 7 8 9 10 11 12 13 14 15 16 17 18 19 20 21 22 23 24 25 26 27 28 29 30 31 32 33 34 35 36 37 38 39 40 41 42 43 44 45 46 47 48 49 50

618
ASUS44 KJAN 190710
RWRMS

MISSISSIPPI HOURLY WEATHER ROUNDUP
NATIONAL WEATHER SERVICE JACKSON MS
100 AM CST FRI DEC 19 2014

NOTE: "FAIR: INDICATES FEW OR NO CLOUDS BELOW 12,000 FEET WITH NO
SIGNIFICANT WEATHER AND/OR OBSTRUCTIONS TO VISIBILITY.

MSZ001>002-007>008-010>013-018>021-025>028-034>036-190800-
NORTHWEST MISSISSIPPI

CITY           SKY/WX    TMP DP  RH WIND       PRES   REMARKS
CLARKSDALE     CLOUDY    45  41  87 CALM      30.23S
CLEVELAND      CLOUDY    45  43  93 NE5       30.21S
GREENWOOD      CLOUDY    48  41  76 NE3       30.21F
GREENVILLE     CLOUDY    46  41  82 NE7       30.20F
GRENADA        CLOUDY    45  37  76 CALM      30.22S
OLIVE BRANCH   CLOUDY    41  41 100 CALM      30.22F
OXFORD         CLOUDY    41  37  87 NE3       30.23S
TUNICA         CLOUDY    43  39  87 CALM      30.24R
$$

MSZ003>006-009-014>017-022>024-029>033-037>039-190800-
NORTHEAST MISSISSIPPI

CITY           SKY/WX    TMP DP  RH WIND       PRES   REMARKS
COLUMBUS AFB   NOT AVBL
CORINTH        CLOUDY    43  37  81 N3        30.21F
GOLDN TRIANGLE MOCLDY    39  34  81 N5        30.19F
STARKVILLE     CLOUDY    45  37  76 N5        30.20S
TUPELO         CLOUDY    45  37  73 NE6       30.21F
$$

MSZ040-058-190800-
CENTRAL MISSISSIPPI

CITY           SKY/WX    TMP DP  RH WIND       PRES   REMARKS
JACKSON INTL   CLOUDY    47  44  90 CALM      30.18S
JACKSON HAWKNS CLOUDY    48  44  86 CALM      30.18S
MERIDIAN KEY   CLOUDY    44  39  82 N3        30.19S
MERIDIAN NAS   CLOUDY    38  36  92 CALM      30.20S
RAYMOND        CLOUDY    48  43  81 CALM      30.17F
VICKSBURG      CLOUDY    50  45  83 E3        30.17F
$$

MSZ059>079-190800-
SOUTH MISSISSIPPI

CITY           SKY/WX    TMP DP  RH WIND       PRES   REMARKS
HATTIESBURG    CLOUDY    51  49  92 E3        30.17S
MCCOMB         CLOUDY    51  49  92 NE3       30.14S
NATCHEZ        CLOUDY    48  46  93 NE6       30.14F
PINE BELT      CLOUDY    48  46  93 NE3       30.17S
$$

MSZ080>082-190800-
COASTAL MISSISSIPPI

CITY           SKY/WX    TMP DP  RH WIND       PRES   REMARKS
BILOXI         CLOUDY    54  49  85 NE8       30.13F
PASCAGOULA     CLOUDY    54  47  77 N8        30.15S
GULFPORT       CLOUDY    53  49  86 NE7       30.13F
$$



USA.gov is the U.S. government's official web portal to all federal, state and local government web resources and services.